Location: Elbart
(49.6135°N, 11.9134°E)
Time: 18:15:39
(UTC+00:00)

Cosmos 2322 - Pass Details

Date: 09 April 2020
Orbit: 839 x 856 km, 71.0° (Epoch: 25 May)

Event Time Altitude Azimuth Distance (km) Brightness Sun altitude
Rises 22:51:03 0° 333° (NNW) 3,431 7.8 -32.1°
Reaches altitude 10° 22:53:36 10° 338° (NNW) 2,493 6.9 -32.2°
Enters shadow 22:58:42 48° 38° (NE) 1,104 4.4 -32.3°
